Regional Weather Roundup
Issued by NWS

Home | Current Version | Previous Version | Graphics & Text | Print | Product List | Glossary On
Versions: 1 2 3 4 5 6 7 8 9 10 11 12 13 14 15 16 17 18 19 20 21 22 23 24 25 26 27 28 29 30 31 32 33 34 35 36 37 38 39 40 41 42 43 44 45 46 47 48 49 50
000
ASUS43 KBIS 301702
RWRND

NORTH DAKOTA REGIONAL WEATHER ROUNDUP
NATIONAL WEATHER SERVICE BISMARCK ND
1200 PM CDT SUN AUG 30 2015

NOTE: "FAIR" INDICATES FEW OR NO CLOUDS BELOW 12,000 FEET WITH NO
SIGNIFICANT WEATHER AND/OR OBSTRUCTIONS TO VISIBILITY.


NDZ001>003-009>011-017-301800-
NORTHWEST NORTH DAKOTA

CITY           SKY/WX    TMP DP  RH WIND       PRES   REMARKS
WILLISTON      PTSUNNY   83  51  33 N17       29.65F HAZE
MINOT          PTSUNNY   87  58  37 SE8       29.63F
MINOT AFB      PTSUNNY   88  58  36 S10       29.62F
$$

NDZ018>021-031>035-040>046-301800-
SOUTHWEST NORTH DAKOTA

CITY           SKY/WX    TMP DP  RH WIND       PRES   REMARKS
BISMARCK       PTSUNNY   82  59  45 SE10      29.70F
DICKINSON      PTSUNNY   88  44  21 SW9G18    29.69F
GARRISON         N/A     82  58  43 S7        29.68F
HETTINGER ARPT PTSUNNY   86  48  26 S8        29.75F
$$

NDZ004>008-012>016-024-026-027-054-301800-
NORTHEAST NORTH DAKOTA

CITY           SKY/WX    TMP DP  RH WIND       PRES   REMARKS
GRAND FORKS    MOSUNNY   76  66  71 S15       29.75F
GRND FRKS AFB  MOSUNNY   77  67  69 S13       29.75F
DEVILS LAKE    MOSUNNY   81  63  54 S13       29.71S
$$

NDZ022-023-025-028>030-036>039-047>053-301800-
SOUTHEAST NORTH DAKOTA

CITY           SKY/WX    TMP DP  RH WIND       PRES   REMARKS
FARGO          SUNNY     78  65  63 SE16      29.81F
JAMESTOWN      SUNNY     79  65  62 S16       29.76F
$$



USA.gov is the U.S. government's official web portal to all federal, state and local government web resources and services.